Weather in Sheregesh

Russia / Kemerovo Oblast     52°55′16″N   87°59′22″E
temp.,
°C
wind,
m/s
gust,
m/s
humid.,
%
clouds,
%
prec.,
mm/h
press.,
hPa
HPBL,
m
25 january, mon
mon2501:00−24wsw2497100 0.7 1043500
04:00−27wsw2596100 0.1 1046473
07:00−30wsw2398100 0.2 1049185
10:00−31sw2397100 0.1 1050179
13:00−27sw2389100 0.1 1048441
16:00−25sw1388100 0.0 1046434
19:00−28s1295100 0.0 104619
22:00−27se1194100 0.0 104419
26 january, tue
tue2601:00−26sse1293100 0.0 104220
04:00−24sse1199100 0.1 104042
07:00−23sse1199100 0.4 103922
10:00−21sw1198100 0.3 103964
13:00−17w1389100 0.6 1038487
16:00−17w2492100 0.3 1038579
19:00−20wsw1199100 0.6 104121
22:00−20sw1299100 0.2 104223
27 january, wed
wed2701:00−20ssw2299100 0.4 104225
04:00−19ssw2298100 0.2 104128
07:00−17sse1298100 0.6 103948
10:00−16sse2496100 0.7 1037189
13:00−12ssw3594100 1.9 1034267
16:00−10sw3894100 1.7 1032633
19:00−10sw3896100 4.4 1032532
22:00−9wsw31096100 2.2 1031605
28 january, thu
thu2801:00−8wsw3996100 4.3 1031580
04:00−8wsw3896100 1.8 1031594
07:00−9wsw2896100 3.2 1031572
10:00−8wsw2795100 1.3 1032569
13:00−6wsw31093100 2.7 1030953
16:00−6wsw31094100 1.5 10301004
19:00−7wsw3896100 2.8 1031611
22:00−8wsw31096100 1.7 1030618
29 january, fri
fri2901:00−8wsw41395100 3.3 1029642
04:00−8wsw41695100 0.8 1028955
07:00−8wsw41795100 2.1 1027864
10:00−7wsw51694100 1.5 1027910
13:00−6wsw51695100 2.9 1026953
16:00−5wsw51595100 3.3 1026887
19:00−5wsw41596100 7.5 1026977
22:00−6wsw51793100 2.6 10251040